Date,TemperatureHighF,TemperatureAvgF,TemperatureLowF,DewpointHighF,DewpointAvgF,DewpointLowF,HumidityHigh,HumidityAvg,HumidityLow,PressureMaxIn,PressureMinIn,WindSpeedMaxMPH,WindSpeedAvgMPH,GustSpeedMaxMPH,PrecipitationSumIn
2013-3-1,42,34,26,23,15,10,63,47,30,0.00,40.00,10,-371,14,0.00
2013-3-2,58,46,37,25,19,15,46,34,19,0.00,40.00,10,-594,14,0.00
2013-3-3,56,49,41,26,18,13,45,28,21,0.00,40.00,14,-244,24,0.00
2013-3-4,46,29,19,27,18,6,95,65,33,0.00,40.00,20,-90,30,0.00
2013-3-5,41,28,13,24,14,2,75,56,34,0.00,40.00,10,-225,15,0.00
2013-3-6,54,43,25,27,18,5,74,39,12,0.00,40.00,17,-56,23,0.00
2013-3-7,61,52,41,26,17,10,47,24,12,0.00,40.00,18,-128,25,0.00
2013-3-8,48,38,33,34,28,19,90,68,35,0.00,40.00,11,-433,13,0.00
2013-3-9,33,23,23,31,22,-3,98,85,65,0.00,40.00,24,-92,41,0.00
2013-3-10,40,28,20,22,16,11,79,61,41,0.00,40.00,11,-103,23,0.00
2013-3-11,47,39,30,31,19,12,94,48,25,0.00,40.00,19,-210,34,0.00
2013-3-12,41,28,23,30,23,-2,94,78,51,0.00,40.00,13,-82,19,0.00
2013-3-13,61,49,31,28,21,15,76,35,19,0.00,40.00,12,-198,17,0.00
2013-3-14,69,56,45,27,20,15,31,23,13,0.00,40.00,12,-399,15,0.00
2013-3-15,69,58,51,22,18,15,25,19,15,0.00,40.00,14,-340,19,0.00
2013-3-18,47,41,37,14,7,-100,28,20,16,0.00,40.00,23,-38,33,0.00
2013-3-19,49,38,27,17,9,-2,67,31,9,0.00,40.00,16,-175,24,0.00
2013-3-20,58,39,21,23,14,3,76,41,9,0.00,40.00,10,-162,15,0.00
2013-3-21,56,44,33,33,21,9,72,39,26,0.00,40.00,22,-36,38,0.00
2013-3-22,47,34,26,28,19,11,94,59,28,0.00,40.00,25,-141,36,0.00
2013-3-23,26,16,14,24,15,9,94,89,86,0.00,40.00,20,-96,28,0.00
2013-3-24,26,17,11,15,6,0,89,63,40,0.00,40.00,8,-393,14,0.00
2013-3-25,34,21,10,17,7,-4,92,58,25,0.00,40.00,8,-344,16,0.00
2013-3-26,48,33,24,29,17,6,81,48,26,0.00,40.00,14,-295,22,0.00
2013-3-27,52,40,30,33,26,22,80,61,37,0.00,40.00,17,-254,22,0.00
2013-3-28,60,46,37,32,26,22,70,44,24,0.00,40.00,14,-132,30,0.00
2013-3-29,63,53,45,29,24,16,51,33,15,0.00,40.00,13,-118,27,0.00
2013-3-30,63,50,40,37,25,-100,83,43,13,0.00,40.00,24,-222,37,0.00
2013-3-31,66,50,37,34,25,5,82,43,8,0.00,40.00,13,-265,24,0.00